EW6013 Weather Reports


Display with metric or nautical units.
time (UTC)temp
F
wind
direction
speed
MPH
gust
MPH
rain 1hr
in
rain 24hr
in
rain mn
in
humidity
%
barometer
mb
20260504015516 38 0.0 0.0 0.00 0.00 0.00 75 1006.9
20260504015016 39 0.0 0.0 0.00 0.00 0.00 74 1006.9
20260504014516 39 0.0 0.0 0.00 0.00 0.00 73 1006.8
20260504014016 39 0.0 0.0 0.00 0.00 0.00 73 1006.8
20260504013516 40 0.0 0.0 0.00 0.00 0.00 73 1006.8
20260504013036 40 0.0 0.0 0.00 0.00 0.00 71 1006.7
20260504012516 40 0.0 0.0 0.00 0.00 0.00 71 1006.7
20260504012016 41 0.0 0.0 0.00 0.00 0.00 70 1006.6
20260504011516 41 0.0 0.0 0.00 0.00 0.00 68 1006.6
20260504011016 41 0.0 0.0 0.00 0.00 0.00 67 1006.5
20260504010516 42 0.0 0.0 0.00 0.00 0.00 66 1006.4
20260504010016 42 0.0 0.0 0.00 0.00 0.00 65 1006.3
20260504005516 43 0.0 0.0 0.00 0.00 0.00 65 1006.3
20260504005016 43 0.0 0.0 0.00 0.00 0.00 64 1006.2
20260504004515 44 0.0 0.0 0.00 0.00 0.00 63 1006.2
20260504004056 45 0.0 0.0 0.00 0.00 0.00 62 1006.1
20260504003516 45 0.0 0.0 0.00 0.00 0.00 60 1006.1
20260504003016 46 0.0 0.0 0.00 0.00 0.00 58 1006.1
20260504002515 46 0.0 0.0 0.00 0.00 0.00 58 1006.0
20260504002016 46 0.0 0.0 0.00 0.00 0.00 56 1005.9
20260504001516 47 0.0 0.0 0.00 0.00 0.00 54 1005.8
20260504001016 47 0.0 0.0 0.00 0.00 0.00 54 1005.8
20260504000516 48 0.0 0.0 0.00 0.00 0.00 52 1005.7
20260504000016 48 0.0 0.0 0.00 0.00 0.00 50 1005.7
20260503235516 49 0.0 0.0 0.00 0.00 0.00 50 1005.7
20260503235015 49 0.0 0.0 0.00 0.00 0.00 49 1005.6
20260503234515 49 0.0 0.0 0.00 0.00 0.00 48 1005.6
20260503234015 50 0.0 0.0 0.00 0.00 0.00 49 1005.6
20260503233516 50 0.0 0.0 0.00 0.00 0.00 47 1005.5
20260503233016 50 0.0 0.0 0.00 0.00 0.00 47 1005.5
20260503232515 50 0.0 0.0 0.00 0.00 0.00 46 1005.5
20260503232016 50 0.0 0.0 0.00 0.00 0.00 46 1005.4
20260503231515 50 0.0 0.0 0.00 0.00 0.00 46 1005.3
20260503231016 51 0.0 5.0 0.00 0.00 0.00 47 1005.3
20260503230535 51 300 0.0 5.0 0.00 0.00 0.00 45 1005.2
20260503230015 51 0.0 0.0 0.00 0.00 0.00 44 1005.1
20260503225515 51 0.0 0.0 0.00 0.00 0.00 44 1005.2
20260503225015 51 0.0 0.0 0.00 0.00 0.00 44 1005.1
20260503224515 51 0.0 0.0 0.00 0.00 0.00 43 1005.1
20260503224015 51 0.0 1.0 0.00 0.00 0.00 43 1005.0
20260503223515 51 283 0.0 1.0 0.00 0.00 0.00 43 1005.0
20260503223036 51 0.0 0.0 0.00 0.00 0.00 43 1005.0
20260503222515 52 0.0 0.0 0.00 0.00 0.00 42 1004.9
20260503222016 52 0.0 0.0 0.00 0.00 0.00 43 1004.8
20260503221515 52 0.0 1.0 0.00 0.00 0.00 43 1004.7
20260503221015 52 271 0.0 1.0 0.00 0.00 0.00 43 1004.8
20260503220615 52 0.0 11.0 0.00 0.00 0.00 42 1004.8
20260503220015 52 272 0.0 11.0 0.00 0.00 0.00 41 1004.7
20260503215515 52 261 0.0 6.0 0.00 0.00 0.00 41 1004.6
20260503215015 52 303 0.0 6.0 0.00 0.00 0.00 42 1004.6
20260503214515 52 304 0.0 13.0 0.00 0.00 0.00 41 1004.5
20260503214015 52 285 1.0 13.0 0.00 0.00 0.00 42 1004.5
20260503213515 52 280 1.0 10.0 0.00 0.00 0.00 43 1004.4
20260503213015 52 0.0 13.0 0.00 0.00 0.00 42 1004.4
20260503212515 52 282 1.0 13.0 0.00 0.00 0.00 42 1004.4
20260503212015 53 309 0.0 1.0 0.00 0.00 0.00 43 1004.3
20260503211515 52 0.0 0.0 0.00 0.00 0.00 45 1004.2
20260503211015 52 0.0 0.0 0.00 0.00 0.00 44 1004.2
20260503210515 52 0.0 0.0 0.00 0.00 0.00 44 1004.1
20260503210015 52 0.0 21.0 0.00 0.01 0.00 45 1004.0
20260503205516 52 283 2.0 21.0 0.00 0.01 0.00 42 1004.0
20260503205015 53 0.0 2.0 0.00 0.02 0.00 43 1003.9
20260503204515 53 249 0.0 10.0 0.00 0.02 0.00 44 1003.9
20260503204015 53 330 1.0 10.0 0.00 0.02 0.00 44 1003.9
20260503203535 53 331 0.0 14.0 0.00 0.02 0.00 44 1003.8
20260503203035 53 258 2.0 14.0 0.00 0.02 0.00 43 1003.7
20260503202515 53 282 0.0 4.0 0.00 0.02 0.00 44 1003.7
20260503202015 53 252 0.0 5.0 0.00 0.02 0.00 44 1003.7
20260503201515 53 297 0.0 5.0 0.00 0.02 0.00 44 1003.6
20260503201015 53 312 0.0 8.0 0.00 0.02 0.00 44 1003.6
20260503200515 53 297 1.0 8.0 0.00 0.02 0.00 42 1003.4
20260503200015 53 0.0 10.0 0.00 0.03 0.00 43 1003.5
20260503195515 53 296 0.0 20.0 0.00 0.03 0.00 42 1003.5
20260503195035 53 276 3.0 20.0 0.00 0.04 0.00 42 1003.5
20260503194535 53 5 0.0 1.0 0.00 0.04 0.00 43 1003.5
20260503194035 53 329 0.0 1.0 0.00 0.04 0.00 41 1003.5
20260503193515 53 340 0.0 1.0 0.00 0.04 0.00 43 1003.5
20260503193015 53 0.0 1.0 0.00 0.04 0.00 42 1003.5
20260503192515 53 281 0.0 1.0 0.00 0.04 0.00 43 1003.5
20260503192015 53 309 0.0 2.0 0.00 0.04 0.00 43 1003.5
20260503191515 53 267 0.0 2.0 0.00 0.04 0.00 44 1003.6
20260503191015 53 0.0 0.0 0.00 0.04 0.00 47 1003.5
20260503190515 53 0.0 1.0 0.00 0.04 0.00 47 1003.5
20260503190015 53 9 0.0 1.0 0.00 0.04 0.00 47 1003.6
20260503185515 52 0.0 0.0 0.00 0.04 0.00 49 1003.5
20260503185015 52 0.0 1.0 0.00 0.04 0.00 51 1003.5
20260503184515 52 341 0.0 1.0 0.00 0.04 0.00 52 1003.6
20260503184015 52 0.0 1.0 0.00 0.04 0.00 53 1003.6
20260503183535 52 97 0.0 1.0 0.00 0.04 0.00 52 1003.6
20260503183015 52 0.0 0.0 0.00 0.04 0.00 51 1003.6
20260503182515 52 0.0 0.0 0.00 0.04 0.00 53 1003.6
20260503182015 52 0.0 1.0 0.00 0.04 0.00 52 1003.6
20260503181515 52 158 0.0 1.0 0.00 0.04 0.00 53 1003.6
20260503181035 52 0.0 0.0 0.00 0.04 0.00 52 1003.6
20260503180515 53 0.0 0.0 0.00 0.04 0.00 52 1003.6
20260503180015 53 0.0 0.0 0.00 0.04 0.00 52 1003.6
20260503175555 53 0.0 0.0 0.00 0.04 0.00 53 1003.5
20260503150555 45 0.0 0.0 0.00 0.04 0.00 75 1004.1
20260503131057 45 6 1.0 7.0 0.00 0.04 0.00 81 1004.3
20260503130516 45 304 0.0 2.0 0.00 0.04 0.00 81 1004.4
20260503110516 41 0.0 0.0 0.00 0.15 0.00 89 1004.6
20260503081516 41 0.0 0.0 0.00 0.16 0.00 92 1005.7
20260503081016 41 0.0 0.0 0.00 0.16 0.00 91 1005.7
20260503080516 41 0.0 0.0 0.00 0.16 0.00 92 1005.8
20260503072515 42 0.0 0.0 0.00 0.16 0.00 92 1006.0
20260503072016 42 0.0 0.0 0.00 0.16 0.00 92 1006.0
20260503071516 42 0.0 0.0 0.00 0.16 0.00 92 1006.1
20260503071015 42 0.0 0.0 0.00 0.16 0.00 92 1006.1
20260503070515 42 0.0 0.0 0.00 0.16 0.00 92 1006.2
20260503055035 42 0.0 0.0 0.00 0.16 0.00 92 1007.1
20260503054515 42 0.0 0.0 0.00 0.16 0.00 92 1007.1
20260503054015 42 0.0 0.0 0.00 0.16 0.00 92 1007.1
20260503053515 42 0.0 0.0 0.00 0.16 0.00 92 1007.0
20260503053015 42 0.0 0.0 0.00 0.16 0.00 92 1007.2
20260503052515 42 0.0 0.0 0.00 0.16 0.00 92 1007.3
20260503052015 43 0.0 0.0 0.00 0.16 0.00 92 1007.3
20260503051515 43 0.0 0.0 0.00 0.16 0.00 92 1007.4
20260503051015 43 0.0 0.0 0.00 0.16 0.00 92 1007.5
20260503050535 43 0.0 0.0 0.00 0.16 0.00 92 1007.5
20260503050015 43 0.0 0.0 0.00 0.16 0.00 92 1007.6
20260503045515 43 0.0 0.0 0.00 0.16 0.00 92 1007.7
20260503045015 43 0.0 0.0 0.00 0.16 0.00 92 1007.6
20260503044515 43 0.0 0.0 0.00 0.16 0.00 92 1007.7
20260503044035 43 0.0 0.0 0.00 0.16 0.00 92 1007.8
20260503043535 43 0.0 0.0 0.00 0.16 0.00 92 1007.8
20260503043015 43 0.0 0.0 0.00 0.16 0.00 91 1007.7
20260503042535 43 0.0 0.0 0.00 0.16 0.00 92 1007.8
20260503042015 43 0.0 0.0 0.00 0.16 0.00 92 1008.0
20260503041515 43 0.0 0.0 0.00 0.16 0.00 92 1008.0
20260503041015 44 0.0 0.0 0.00 0.16 0.00 92 1008.0
20260503040515 44 0.0 0.0 0.00 0.16 0.00 92 1007.9
20260503040015 44 0.0 0.0 0.00 0.16 0.16 92 1008.0
20260503035515 44 0.0 0.0 0.00 0.16 0.16 92 1008.0
20260503035015 44 0.0 0.0 0.00 0.16 0.16 92 1008.0
20260503034515 44 0.0 0.0 0.00 0.16 0.16 92 1007.9
20260503034015 44 0.0 0.0 0.00 0.16 0.16 92 1008.0
20260503033515 44 0.0 0.0 0.00 0.16 0.16 92 1008.1
20260503033015 45 0.0 0.0 0.00 0.16 0.16 92 1008.1
20260503032515 45 0.0 0.0 0.00 0.16 0.16 92 1008.1
20260503032015 45 0.0 0.0 0.00 0.16 0.16 92 1008.1
20260503031515 45 0.0 0.0 0.00 0.16 0.16 92 1008.0
20260503031015 45 0.0 0.0 0.00 0.16 0.16 92 1008.0
20260503030535 45 0.0 0.0 0.00 0.16 0.16 92 1008.0
20260503030015 45 0.0 0.0 0.00 0.16 0.16 92 1008.1
20260503025514 45 0.0 0.0 0.00 0.16 0.16 91 1008.0
20260503025015 45 0.0 0.0 0.00 0.16 0.16 91 1007.9
20260503024515 45 0.0 0.0 0.00 0.16 0.16 92 1007.9
20260503024037 45 0.0 0.0 0.00 0.16 0.16 91 1007.8
20260503023557 45 0.0 0.0 0.00 0.16 0.16 91 1007.9
20260503023017 45 0.0 0.0 0.00 0.16 0.16 91 1007.9
20260503022517 46 0.0 0.0 0.00 0.16 0.16 91 1008.0
20260503022016 46 0.0 0.0 0.00 0.16 0.16 91 1008.1
20260503021516 46 0.0 0.0 0.00 0.16 0.16 91 1008.1
20260503021016 46 0.0 0.0 0.00 0.16 0.16 91 1008.2
20260503020516 46 0.0 0.0 0.00 0.16 0.16 91 1008.2
20260503020016 46 0.0 0.0 0.00 0.16 0.16 91 1008.2